Weather in Serebryanskoye

Russia / Novosibirsk Oblast     54°52′28″N   80°42′00″E
temp.,
°C
wind,
m/s
gust,
m/s
humid.,
%
clouds,
%
prec.,
mm/h
press.,
hPa
HPBL,
m
2 march, tue
tue201:00−14ne339691 0.4 101141
04:00−14nne2296100 0.1 101132
07:00−15n119697 0.2 101320
10:00−16nw119782 0.1 101521
13:00−13w229187 0.1 1016301
16:00−12wsw2392100 0.1 1015373
19:00−15wsw2297100 0.1 101620
22:00−18wsw229997 0.0 101620
3 march, wed
wed301:00−18wsw229897 0.1 101720
04:00−19sw229992 0.0 101720
07:00−18sw239789 0.1 101837
10:00−16sw2496100 0.1 1019172
13:00−13ssw359393 0.1 1019326
16:00−12ssw4792100 0.0 1019397
19:00−13ssw4109499 0.1 1020251
22:00−14ssw6139492 0.0 1021357
4 march, thu
thu401:00−15s7159294 0.0 1020371
04:00−11ssw71491100 0.2 1018501
07:00−10ssw71490100 0.2 1019466
10:00−9ssw81591100 0.1 1017486
13:00−7ssw91592100 0.4 1017605
16:00−5ssw91592100 0.3 1015681
19:00−5ssw81691100 0.6 1015744
22:00−4ssw91788100 0.1 1014715
5 march, fri
fri501:00−5ssw81687100 0.1 1013536
04:00−7ssw8168696 0.0 1011450
07:00−8ssw7148697 0.0 1011393
10:00−8ssw71393100 0.1 1009450
13:00−5sw61094100 0.4 1010508
16:00−2w71083100 0.2 1013987
19:00−7sw6138975 0.2 1017476
22:00−8sw9188785 0.0 1018566
6 march, sat
sat601:00−7sw10188693 0.0 1018842
04:00−7sw101889100 0.1 1017846
07:00−7sw101789100 0.3 1017845
10:00−7sw101692100 0.4 1017783
13:00−5sw91491100 0.7 1017768
16:00−5sw91491100 0.2 1017771
19:00−6sw81491100 0.7 1017712
22:00−7sw61393100 0.1 1018518